China Lake, CA

1:04 AM PDT on March 25, 2017 (GMT -0700)
China Lake NAWS

Weather History for KNID - September, 2012

Change the Weather History Date:

Sunday, September 9, 2012

  Actual Average Record
Temperature  
Mean Temperature 88 °F -  
Max Temperature 105 °F 93 °F 105 °F (2012)
Min Temperature 75 °F 65 °F 48 °F (2002)
Cooling Degree Days 24    
Growing Degree Days 38 (Base 50)    
Moisture  
Dew Point 51 °F    
Average Humidity 28    
Maximum Humidity 46    
Minimum Humidity 13    
Precipitation  
Precipitation 0.00 in - - ()
Sea Level Pressure  
Sea Level Pressure 29.83 in    
Wind  
Wind Speed 5 mph (SSE)    
Max Wind Speed 21 mph    
Max Gust Speed 26 mph    
Visibility 10 miles    
Events      
Averages and records for this station are not official NWS values.
T = Trace of Precipitation, MM = Missing Value Source: NWS Daily Summary

Daily Weather History Graph

Daily Weather History Graph

Search for Another Location

Airport or City:

Trip Planner

Search our weather history database for the weather conditions in past years. The results will help you decide how hot, cold, wet, or windy it might be!

Date:

Astronomy

Sep. 09, 2012 Rise Set
Actual Time 6:29 AM PDT 7:05 PM PDT
Civil Twilight 6:03 AM PDT 7:31 PM PDT
Nautical Twilight 5:33 AM PDT 8:01 PM PDT
Astronomical Twilight 5:02 AM PDT 8:32 PM PDT
Moon 12:11 AM PDT (9/9) 2:46 PM PDT (9/9)
Length of Visible Light 13h 27m
Length of Day
12h 36m
Last Quarter, 38% of the Moon is Illuminated
Sep 9
Last Quarter
Sep 15
New
Sep 22
First Quarter
Sep 29
Full
Oct 8
Last Quarter

Hourly Weather History & Observations

Time (PDT) Temp. Heat Index Dew Point Humidity Pressure Visibility Wind Dir Wind Speed Gust Speed Precip Events Conditions
12:56 AM 84.0 °F - 52.0 °F 33% 29.85 in 10.0 mi Calm Calm - N/A   Clear
1:56 AM 82.0 °F - 52.0 °F 35% 29.84 in 10.0 mi SSE 3.5 mph - N/A   Clear
2:56 AM 78.1 °F - 52.0 °F 40% 29.85 in 10.0 mi South 3.5 mph - N/A   Clear
3:56 AM 78.1 °F - 53.1 °F 42% 29.85 in 10.0 mi Calm Calm - N/A   Clear
4:56 AM 75.9 °F - 54.0 °F 46% 29.85 in 10.0 mi Calm Calm - N/A   Clear
5:56 AM 75.9 °F - 52.0 °F 43% 29.86 in 10.0 mi South 6.9 mph - N/A   Clear
6:56 AM 79.0 °F - 52.0 °F 39% 29.88 in 10.0 mi South 8.1 mph - N/A   Clear
7:56 AM 82.9 °F 81.8 °F 53.1 °F 36% 29.89 in 10.0 mi Calm Calm - N/A   Clear
8:56 AM 84.9 °F - 52.0 °F 32% 29.90 in 10.0 mi Calm Calm - N/A   Clear
9:56 AM 88.0 °F 85.7 °F 53.1 °F 30% 29.90 in 10.0 mi East 4.6 mph - N/A   Clear
10:56 AM 93.9 °F - 52.0 °F 24% 29.89 in 10.0 mi Calm Calm - N/A   Clear
11:56 AM 98.1 °F - 52.0 °F 21% 29.86 in 10.0 mi East 6.9 mph - N/A   Clear
12:56 PM 99.0 °F - 52.0 °F 21% 29.83 in 10.0 mi Calm Calm - N/A   Clear
1:56 PM 102.0 °F - 48.0 °F 16% 29.81 in 10.0 mi SE 9.2 mph - N/A   Partly Cloudy
2:56 PM 102.9 °F - 43.0 °F 13% 29.78 in 10.0 mi SSW 10.4 mph 18.4 mph N/A   Clear
3:56 PM 102.0 °F - 44.1 °F 14% 29.76 in 10.0 mi South 6.9 mph - N/A   Clear
4:56 PM 100.0 °F - 51.1 °F 19% 29.76 in 10.0 mi NW 20.7 mph 26.5 mph N/A   Clear
5:08 PM 98.6 °F - 51.8 °F 21% 29.84 in 10.0 mi WNW 20.7 mph 25.3 mph N/A   Clear
5:56 PM 99.0 °F - 48.0 °F 18% 29.76 in 10.0 mi Variable 5.8 mph - N/A   Clear
6:56 PM 95.0 °F - 51.1 °F 22% 29.76 in 10.0 mi ESE 6.9 mph - N/A   Clear
7:56 PM 91.9 °F - 51.1 °F 25% 29.78 in 10.0 mi SE 10.4 mph - N/A   Clear
8:56 PM 91.9 °F - 50.0 °F 24% 29.80 in 10.0 mi SSE 9.2 mph - N/A   Clear
9:56 PM 90.0 °F - 52.0 °F 27% 29.81 in 10.0 mi South 16.1 mph 23.0 mph N/A   Clear
10:56 PM 87.1 °F 85.1 °F 54.0 °F 32% 29.81 in 10.0 mi South 11.5 mph - N/A   Clear
11:56 PM 86.0 °F - 52.0 °F 31% 29.81 in 10.0 mi South 11.5 mph - N/A   Clear